International Falls, MN

12:45 PM CDT on March 25, 2017 (GMT -0500)
Falls International

Weather History for KINL - March, 2014

Change the Weather History Date:

Monday, March 24, 2014

  Actual Average Record
Temperature  
Mean Temperature -1 °F 28 °F  
Max Temperature 23 °F 39 °F 63 °F (1921)
Min Temperature -25 °F 17 °F -29 °F (1974)
Degree Days  
Heating Degree Days 66 37  
Month to date heating degree days 1278 1033  
Since 1 July heating degree days 9709 8616  
Cooling Degree Days 0 0  
Month to date cooling degree days 0 0  
Year to date cooling degree days 0 0  
Moisture  
Dew Point -9 °F    
Average Humidity 62    
Maximum Humidity 79    
Minimum Humidity 44    
Precipitation  
Precipitation T in 0.03 in 0.63 in (2009)
Month to date precipitation 1.18 0.68  
Year to date precipitation 2.93 1.87  
Snow  
Snow T in 0.20 in 5.90 in (1975)
Month to date snowfall 15.0 6.1  
Since 1 July snowfall 91.4 62.9  
Snow Depth 27.00 in    
Sea Level Pressure  
Sea Level Pressure 30.19 in    
Wind  
Wind Speed 11 mph (West)    
Max Wind Speed 25 mph    
Max Gust Speed 31 mph    
Visibility 9 miles    
Events Snow    
T = Trace of Precipitation, MM = Missing Value Source: NWS Daily Summary

Daily Weather History Graph

Daily Weather History Graph

Search for Another Location

Airport or City:

Trip Planner

Search our weather history database for the weather conditions in past years. The results will help you decide how hot, cold, wet, or windy it might be!

Date:

Astronomy

Mar. 24, 2014 Rise Set
Actual Time 7:08 AM CDT 7:32 PM CDT
Civil Twilight 6:36 AM CDT 8:03 PM CDT
Nautical Twilight 5:59 AM CDT 8:41 PM CDT
Astronomical Twilight 5:20 AM CDT 9:20 PM CDT
Moon 3:05 AM CDT (3/24) 12:32 PM CDT (3/24)
Length of Visible Light 13h 27m
Length of Day
12h 24m
Last Quarter, 43% of the Moon is Illuminated
Mar 24
Last Quarter
Mar 30
New
Apr 7
First Quarter
Apr 15
Full
Apr 22
Last Quarter

Hourly Weather History & Observations

Time (CDT) Temp. Windchill Dew Point Humidity Pressure Visibility Wind Dir Wind Speed Gust Speed Precip Events Conditions
12:55 AM -11.9 °F -21.5 °F -17.0 °F 78% 30.34 in 10.0 mi WSW 3.5 mph - N/A   Clear
1:55 AM -17.0 °F -29.7 °F -22.0 °F 78% 30.33 in 10.0 mi SW 4.6 mph - N/A   Clear
2:32 AM -18.9 °F -32.0 °F -23.1 °F 81% 30.22 in 10.0 mi WSW 4.6 mph - N/A   Mostly Cloudy
2:55 AM -15.0 °F -25.0 °F -20.0 °F 78% 30.32 in 10.0 mi SSW 3.5 mph - N/A   Mostly Cloudy
3:07 AM -15.0 °F - -18.0 °F 86% 30.20 in 10.0 mi Calm Calm - N/A   Partly Cloudy
3:55 AM -18.9 °F -29.5 °F -23.1 °F 81% 30.30 in 10.0 mi SSW 3.5 mph - N/A   Clear
4:38 AM -23.1 °F -36.8 °F -29.0 °F 74% 30.17 in 7.0 mi SW 4.6 mph - N/A   Mostly Cloudy
4:47 AM -20.9 °F -31.7 °F -27.0 °F 73% 30.17 in 9.0 mi SSW 3.5 mph - N/A   Mostly Cloudy
4:55 AM -20.9 °F -31.7 °F -26.0 °F 77% 30.28 in 10.0 mi SW 3.5 mph - N/A   Mostly Cloudy
5:08 AM -24.0 °F -37.9 °F -27.9 °F 82% 30.16 in 10.0 mi SW 4.6 mph - N/A   Partly Cloudy
5:55 AM -22.0 °F -33.0 °F -29.0 °F 70% 30.27 in 10.0 mi WSW 3.5 mph - N/A   Clear
6:55 AM -14.1 °F -26.3 °F -20.0 °F 75% 30.26 in 10.0 mi SSW 4.6 mph - N/A   Clear
7:55 AM -9.9 °F -19.2 °F -15.0 °F 78% 30.25 in 10.0 mi SSW 3.5 mph - N/A   Clear
8:55 AM 1.0 °F -12.9 °F -4.0 °F 79% 30.25 in 10.0 mi West 8.1 mph - N/A   Clear
9:55 AM 6.1 °F -7.8 °F -0.9 °F 73% 30.23 in 10.0 mi West 9.2 mph - N/A   Clear
10:55 AM 10.9 °F -2.6 °F -0.0 °F 61% 30.20 in 10.0 mi West 10.4 mph 17.3 mph N/A   Clear
11:55 AM 16.0 °F 2.3 °F 1.0 °F 52% 30.17 in 10.0 mi West 12.7 mph - N/A   Scattered Clouds
12:55 PM 19.0 °F 7.5 °F 1.0 °F 46% 30.16 in 10.0 mi West 10.4 mph 19.6 mph N/A   Overcast
1:55 PM 21.0 °F 7.1 °F 3.0 °F 46% 30.14 in 10.0 mi West 16.1 mph 28.8 mph N/A   Mostly Cloudy
2:55 PM 23.0 °F 11.1 °F 3.9 °F 44% 30.11 in 10.0 mi WNW 12.7 mph 23.0 mph N/A   Scattered Clouds
3:55 PM 21.0 °F 4.6 °F 3.9 °F 48% 30.10 in 10.0 mi West 23.0 mph 29.9 mph N/A   Mostly Cloudy
4:55 PM 19.0 °F 2.0 °F 3.0 °F 50% 30.11 in 10.0 mi WNW 23.0 mph 31.1 mph 0.00 in   Overcast
5:23 PM 17.1 °F 3.0 °F 9.0 °F 71% 30.00 in 2.5 mi WNW 13.8 mph 24.2 mph 0.00 in Snow Light Snow
5:31 PM 17.1 °F 2.0 °F 9.0 °F 71% 30.00 in 1.8 mi West 16.1 mph 23.0 mph 0.00 in Snow Light Snow
5:34 PM 17.1 °F 2.5 °F 8.1 °F 68% 30.00 in 3.0 mi West 15.0 mph 23.0 mph 0.00 in Snow Light Snow
5:55 PM 17.1 °F -0.3 °F 3.0 °F 54% 30.12 in 10.0 mi WNW 21.9 mph 28.8 mph 0.00 in   Mostly Cloudy
6:55 PM 14.0 °F -3.9 °F -2.0 °F 49% 30.13 in 10.0 mi NW 20.7 mph 28.8 mph N/A   Partly Cloudy
7:55 PM 12.0 °F -4.5 °F -4.0 °F 49% 30.14 in 10.0 mi WNW 16.1 mph 23.0 mph N/A   Clear
8:55 PM 10.0 °F -7.1 °F -5.1 °F 51% 30.15 in 10.0 mi NW 16.1 mph 24.2 mph N/A   Clear
9:55 PM 7.0 °F -9.1 °F -7.1 °F 53% 30.16 in 10.0 mi NW 12.7 mph - N/A   Clear
10:55 PM 6.1 °F -10.9 °F -8.0 °F 53% 30.17 in 10.0 mi NW 13.8 mph - N/A   Clear
11:55 PM 3.9 °F -10.4 °F -9.0 °F 55% 30.18 in 10.0 mi WNW 9.2 mph - N/A   Scattered Clouds